Regional Weather Roundup
Issued by NWS Charleston, SC

Current Version | Previous Version | Graphics & Text | Print | Product List | Glossary On
Versions: 1 2 3 4 5 6 7 8 9 10 11 12 13 14 15 16 17 18 19 20 21 22 23 24 25 26 27 28 29 30 31 32 33 34 35 36 37 38 39 40 41 42 43 44 45 46 47 48 49 50
000
ASUS42 KCHS 190212
RWRCHS

Regional Weather Roundup
National Weather Service Charleston SC
900 PM EST SUN FEB 18 2018

NOTE: "fair" indicates few or no clouds below 12,000 feet with no
significant weather and/or obstructions to visibility.

Not all stations are quality controlled. Use data with caution,
especially dewpoint observations.

SCZ027-030-031-034>040-042>050-190300-
...Southeast South Carolina...

CITY           SKY/WX    TMP DP  RH WIND       PRES   REMARKS
N Charleston   CLOUDY    60  52  74 VRB5      30.35R
Waterfront Prk   N/A     59  56  89 NE14      30.19S
Mount Pleasant CLOUDY    59  54  82 NE6       30.35S
Johns Island   CLOUDY    61  55  82 NE10      30.35R
Pinopolis        N/A     57  50  77 E5        30.27R
Moncks Corner  CLOUDY    57  46  67 E3        30.36R
Summerville    CLOUDY    57  48  72 CALM      30.37R
Beaufort MCAS  CLOUDY    61  55  81 NE5       30.34R
Beaufort Arpt  CLOUDY    61  54  77 NE8       30.34R
Hilton Head Is CLOUDY    61  55  82 NE7       30.34R
Walterboro     CLOUDY    59  50  72 E5        30.36S
Allendale      CLOUDY    61  55  82 SE5       30.32S

...Southern Midlands and Pee Dee...

CITY           SKY/WX    TMP DP  RH WIND       PRES   REMARKS
Georgetown     CLOUDY    54  54 100 E13       30.38R
Kingstree      CLOUDY    55  45  67 E5        30.37R
Orangeburg     LGT RAIN  58  46  64 E7        30.35R
Barnwell         N/A     59  55  88 E7        30.34R
Aiken          CLOUDY    55  54  94 E5        30.37R
Manning        CLOUDY    57  23  26 MISG      30.37R
Columbia       CLOUDY    62  52  69 SE14      30.35R
Sumter         CLOUDY    58  45  62 SE7       30.35R
Florence       CLOUDY    57  46  66 SE8       30.38R
Myrtle Beach   CLOUDY    54  49  83 E13       30.39R
N Myrtle Beach CLOUDY    55  47  74 E8        30.38R

$$

GAZ063-065-086>088-099>101-113>116-118-119-134>141-150-190300-
...Southeast Georgia...

CITY           SKY/WX    TMP DP  RH WIND       PRES   REMARKS
Savannah Arpt  CLOUDY    62  57  83 E7        30.33R
Hunter AAF     CLOUDY    61  56  83 NE8       30.30R
Fort Stewart   CLOUDY    61  57  85 E7        30.30R
Statesboro     FAIR      61  55  78 SE3       30.32R
Sylvania       FAIR      62  58  88 SE3       30.33R
Claxton        CLOUDY    63  59  87 NE5       30.32R

...CSRA, Central and far Southeast Georgia...

CITY           SKY/WX    TMP DP  RH WIND       PRES   REMARKS
Thomson        CLOUDY    61  56  84 S7        30.36R
Augusta-Bush   CLOUDY    60  57  89 E7        30.32R
Augusta-Daniel CLOUDY    61  58  90 E12       30.33R
Swainsboro     CLOUDY    64  61  88 SE14      30.31R
Vidalia        CLOUDY    63  61  94 E8        30.30R
Eastman        MOCLDY    66  57  74 CALM      30.30R
Hazlehurst     FAIR      67  59  74 E10       30.28R
Alma           CLOUDY    66  60  81 E12       30.28R
Waycross       CLOUDY    66  64  91 E13       30.29R
Jesup          CLOUDY    64  59  82 E7        30.31R
Baxley         CLOUDY    63  63 100 E6        30.30R
Brunswick      CLOUDY    61  57  88 E10       30.32R
Saint Simons   CLOUDY    61  60  97 NE10      30.31R

$$

SCZ027-028-034-036>038-045-046-048>050-GAZ119-141-190300-
...Lake and Supplemental Coastal Observations...

STATION/POSITION TIME  TEMP    WIND        PRES    WAVE   SWELL
                       AIR SEA DIR/SP/G            HT/PER HT/PER/DIR
                 (UTC) (F)     (DEG/KT/KT) (MB)    (FT/S) (FT/S/D)
Winyah Bay       0045   55      60/ 13     1028.0
Lake Murray      0120   59     150/  7/ 10 1026.4
ACE Basin NERRS  0045   60      50/  4     1027.0
Fort Pulaski     0142   60 59   60/  8/ 10 1027.3R
Sapelo Island    0100   61      40/  5     1026.0

$$

ANZ835-935-AMZ111-154-330-350-352-354-370-450-454-472-190300-
...C-MAN and Buoy Observations...

STATION/POSITION TIME  TEMP    WIND        PRES    WAVE   SWELL
                       AIR SEA DIR/SP/G            HT/PER HT/PER/DIR
                 (UTC) (F)     (DEG/KT/KT) (MB)    (FT/S) (FT/S/D)
Buoy 41004       0150   68 68   70/ 14/ 17 1026.4R   6/ 7   2/130/ 9
Buoy 41008       0150   59 59   30/ 12/ 14 1025.8R   2/10   2/120/10
Folly Beach CMAN 0100   58      40/ 14/ 16 1027.6R
Capers Nearshore 0108   53 56   50/ 16/ 21 1026.6R
Fripp Nearshore  0108   56 56   50/ 14/ 17 1026.4R


STATION/POSITION TIME  TEMP    WIND        PRES    WAVE   SWELL
                       AIR SEA DIR/SP/G            HT/PER HT/PER/DIR
                 (UTC) (F)     (DEG/KT/KT) (MB)    (FT/S) (FT/S/D)
5E St. Marys GA  0130      60                N/A     2/10
Frying Pan Buoy  0150   62 66   60/ 17/ 21 1027.7R   6/ 7
Buoy 41025       0150   54 73   10/ 17/ 21 1031.0    7/ 9   5/ 50/ 9
Cape Lookout NC  0100           50/ 20/ 23 1030.5R
Buoy 41002       0150   69 72   70/ 16/ 19 1027.3R   6/ 6   2/110/ 8
Buoy 41010       NOT AVBL
St Augustine FL  0200   62 60  340/  5/  5 1025.6R


$$




USA.gov is the U.S. government's official web portal to all federal, state and local government web resources and services.